sat.trackr.live / text

‹ back to catalog

2025-012C

NORAD 62727 · 2025-012C

PAYLOAD ACTIVE UNKNOWN

§ Identity

Operator
Country
PRC
Launch date
2025-01-17
Launch site
JSC
Launch vehicle
Mass (kg)
RCS (m²)

External: N2YO · Heavens-Above · Gunter

§ Orbital elements

Epoch: 2026-05-25T03:47:46.268160Z

Period
94.31 min
Inclination
97.4263°
Eccentricity
0.0006689
Mean motion
15.26959876 rev/d
Perigee alt
480.3 km
Apogee alt
489.5 km
Semi-major
6,863.0 km
B*
4.0208e-4
RAAN
220.7774°
Arg perigee
359.3868°
Mean anomaly
0.7362°
Rev number
7,487

§ Raw data

2025-012C1 62727U 25012C   26145.15817440  .00010580  00000+0  40208-3 0  99922 62727  97.4263 220.7774 0006689 359.3868   0.7362 15.26959876 74879

JSON: /api/v1/satellites/62727 · /tle

For live sub-satellite position, see the globe view (requires WebGL).

§ Visibility from observer

Set your observer location to see the next 7 days of passes ≥ 10°. The values pass through the URL so the page stays shareable.

No JS? Fill the form by hand. The geolocation button needs JavaScript.